Lapse_Rate
6.0 6.1 6.0 5.9 5.9 5.8 5.8 5.7 5.6 5.6 5.7 5.6 5.6 5.6 5.6 5.8 5.8 5.8 5.8 5.8 6.0 6.3 5.7 5.6 5.3 5.0 4.9 5.4 5.5 5.8 6.1 6.1 6.0 6.3 5.8 5.7 5.4 6.0 6.2 6.1 5.6 5.6 5.5 5.8 6.2
6.2 6.1 6.2 6.1 6.1 6.1 6.2 6.0 5.9 5.9 5.8 5.7 5.6 5.6 5.6 5.7 5.8 5.8 6.0 5.9 5.9 6.3 6.3 5.3 5.6 5.6 5.4 5.4 5.6 5.9 6.0 5.9 6.0 5.8 5.8 5.9 5.5 6.0 6.0 5.9 5.9 5.9 5.8 5.9 6.0
6.4 6.4 6.3 6.2 6.2 6.2 6.2 6.2 6.3 6.2 6.2 6.0 5.8 5.7 5.6 5.6 5.8 5.8 6.0 5.9 6.0 6.2 6.5 6.1 5.4 5.7 5.9 5.6 5.6 5.9 5.6 5.8 5.8 5.6 5.9 5.7 5.8 5.6 5.5 5.6 6.2 6.6 6.1 5.8 5.8
6.3 6.3 6.3 6.4 6.4 6.4 6.4 6.3 6.2 6.2 6.3 6.3 6.2 6.0 5.7 5.6 5.6 5.8 6.1 5.9 6.2 6.2 6.4 6.5 6.3 6.1 5.9 5.6 6.2 6.1 5.9 5.9 5.8 5.6 5.7 5.5 5.6 5.5 5.2 5.6 6.2 6.4 6.5 5.8 5.9
6.1 6.1 6.1 6.2 6.3 6.4 6.4 6.4 6.4 6.3 6.3 6.4 6.3 6.2 5.9 5.7 5.6 5.8 6.2 6.0 6.1 6.2 6.3 6.5 6.4 6.6 6.6 6.5 6.1 6.2 5.9 6.0 5.9 6.0 5.6 5.5 5.3 5.5 5.5 5.6 6.2 6.5 6.3 5.9 5.8
6.1 6.1 6.1 6.2 6.2 6.2 6.3 6.4 6.5 6.5 6.5 6.4 6.4 6.4 6.2 5.8 5.9 5.8 6.1 6.2 6.1 6.2 6.1 6.3 6.8 6.4 6.4 6.3 6.4 6.3 6.3 6.4 6.2 6.2 5.8 5.3 5.2 4.9 5.4 5.7 6.2 6.5 6.0 6.2 5.6
6.1 6.1 6.0 6.1 6.2 6.1 6.1 6.2 6.4 6.5 6.6 6.6 6.5 6.5 6.3 6.0 6.0 5.9 6.1 6.1 6.1 6.0 6.1 6.0 6.7 6.7 6.4 6.4 6.8 6.6 6.3 6.4 6.2 6.1 5.6 5.8 5.7 5.1 5.2 5.7 6.1 6.3 6.0 6.3 5.8
6.2 6.1 6.0 6.0 6.1 6.1 6.1 6.2 6.2 6.3 6.4 6.5 6.5 6.5 6.3 6.2 6.2 6.1 6.1 6.1 6.2 6.1 6.1 6.2 6.3 6.6 6.8 6.5 6.4 6.8 6.8 7.1 6.4 6.3 5.9 5.9 6.0 5.6 5.4 5.6 5.8 6.1 5.9 5.9 6.0
6.3 6.2 6.2 6.3 6.2 6.1 6.1 6.1 6.1 6.2 6.2 6.4 6.5 6.4 6.0 6.3 6.3 6.2 6.1 6.0 5.9 6.0 6.0 6.0 6.2 6.2 6.5 6.8 7.3 7.1 8.6 7.7 6.8 6.5 6.1 6.0 6.2 5.9 5.4 5.2 5.6 5.9 6.2 5.8 6.0
6.5 6.5 6.4 6.4 6.4 6.2 6.1 6.2 6.1 6.2 6.1 6.2 6.3 6.3 6.1 6.2 6.6 6.4 6.4 6.1 6.2 5.9 5.8 5.9 5.8 6.0 6.3 6.9 8.0 8.4 8.1 7.8 7.7 6.9 6.8 6.1 5.9 5.1 5.5 4.8 4.8 4.9 6.0 6.0 6.0
6.7 6.6 6.6 6.6 6.6 6.6 6.5 6.4 6.3 6.4 6.1 6.0 6.0 6.1 6.0 6.2 6.5 6.5 6.4 6.3 6.1 6.0 5.8 5.9 6.1 6.1 6.7 7.2 8.2 7.6 8.2 8.3 7.4 7.2 6.6 6.7 6.4 6.1 5.1 4.8 4.9 4.9 5.5 6.1 5.7
6.6 6.6 6.6 6.5 6.5 6.5 6.5 6.3 6.4 6.2 6.1 5.9 6.0 6.2 5.9 5.9 6.1 6.3 6.7 6.3 6.1 5.8 6.2 6.3 6.1 6.7 7.1 7.6 7.5 7.5 7.9 8.4 7.2 7.2 7.1 7.1 6.9 6.5 5.9 5.7 5.2 5.1 5.1 5.6 4.8
6.6 6.6 6.7 6.7 6.7 6.5 6.4 6.2 6.0 6.2 6.3 5.8 5.7 5.8 6.0 6.0 6.1 5.6 6.5 6.4 5.9 6.2 6.4 6.7 6.9 7.2 7.2 7.6 7.2 7.8 8.1 9.1 8.2 7.0 7.0 7.0 7.5 6.9 6.2 5.6 5.6 5.1 5.3 4.9 5.0
6.9 6.7 6.5 6.3 6.2 6.3 6.2 5.9 5.6 5.6 5.8 5.7 5.6 5.6 5.6 5.6 6.3 6.1 6.3 5.9 6.0 6.3 6.7 7.0 7.3 7.3 7.2 7.2 7.5 8.7 8.4 8.1 7.8 7.8 9.2 7.4 9.2 7.5 6.6 5.9 5.7 5.3 5.0 5.2 5.2
6.8 6.3 6.0 6.0 6.1 6.1 6.1 6.1 6.1 6.4 8.0 6.1 5.9 5.6 5.6 5.8 5.3 6.3 6.2 5.6 6.2 6.5 6.8 6.5 7.1 6.9 6.9 6.9 7.5 8.2 9.3 8.2 8.0 8.1 8.4 8.2 8.0 9.4 7.2 6.5 5.9 5.6 5.9 5.5 5.3
6.3 5.8 5.8 5.9 6.0 6.0 5.9 6.3 6.6 7.5 8.7 7.5 6.9 6.6 6.4 6.0 5.9 5.7 6.4 6.0 6.2 6.8 6.8 7.1 7.3 7.2 7.3 7.5 7.4 7.8 8.0 7.8 7.8 8.4 9.3 8.8 8.3 9.4 8.4 7.7 6.8 6.0 5.9 6.1 5.8
6.4 5.7 5.8 6.0 5.9 5.9 6.0 6.4 7.3 8.4 7.8 7.9 7.6 7.5 7.6 7.1 6.7 6.4 6.5 6.3 6.6 6.8 6.6 6.8 7.0 6.9 7.3 7.6 7.7 7.7 8.8 9.1 9.4 9.7 9.7 9.3 8.2 8.8 8.0 7.8 7.5 7.2 7.1 6.7 6.6
6.4 5.9 5.7 5.7 5.9 6.0 6.3 6.6 7.6 7.5 7.8 7.7 7.8 8.2 8.4 7.8 7.8 7.4 7.3 7.2 7.2 7.4 7.9 7.4 7.5 6.9 6.7 7.3 7.5 7.4 8.8 9.4 9.3 9.8 9.8 9.3 8.3 8.6 8.2 7.8 7.9 7.6 6.9 6.7 6.9
6.1 5.8 5.5 5.5 5.8 6.0 6.3 7.2 7.2 7.1 7.2 7.4 8.2 8.6 9.0 8.5 8.1 8.0 8.1 8.1 7.9 7.6 8.0 8.5 7.8 7.6 7.5 7.5 7.7 7.8 7.7 8.7 9.4 9.5 9.7 9.5 8.5 8.2 8.3 8.2 8.1 7.8 7.4 7.0 7.0
6.1 5.7 5.5 5.6 5.8 6.0 6.7 6.8 6.8 6.8 7.4 7.4 8.1 8.2 8.7 8.4 8.7 9.0 8.9 7.6 7.8 7.2 7.4 8.5 8.7 7.9 7.5 7.7 7.5 8.1 8.5 8.4 8.9 9.5 9.5 9.6 9.3 9.3 9.0 8.6 8.4 7.9 7.7 7.3 7.1
6.4 5.5 5.8 5.7 5.9 6.2 6.9 6.6 6.6 6.7 7.4 7.5 7.7 7.9 8.2 8.5 8.4 8.8 8.9 7.6 7.7 7.4 7.9 8.2 7.8 9.2 8.1 7.3 7.7 7.6 7.6 7.9 9.3 8.9 9.9 9.9 9.6 8.8 8.7 8.6 8.2 8.2 8.2 7.8 7.7
6.5 6.1 6.2 6.1 6.3 6.1 6.6 6.4 6.6 6.6 6.8 7.1 7.4 7.5 7.7 8.1 8.4 8.7 8.5 7.7 7.8 7.9 8.2 8.3 8.4 9.1 7.8 7.8 8.0 8.1 7.9 8.1 8.2 8.5 9.1 9.6 9.7 9.3 8.4 8.2 8.5 8.2 8.7 8.5 8.2
6.7 6.3 6.4 6.4 6.8 6.6 6.2 6.2 6.6 6.7 6.6 6.8 6.9 7.4 7.2 7.6 8.1 8.5 8.1 7.8 7.9 7.5 7.4 7.9 8.2 9.3 9.4 8.4 7.7 7.4 7.6 8.0 8.2 8.8 9.4 9.1 8.9 8.7 8.2 8.5 8.4 8.5 8.7 8.7 8.4
6.8 6.3 6.2 6.5 6.6 6.3 6.2 6.2 6.4 6.6 6.6 6.8 6.8 6.7 6.9 7.6 7.7 8.0 8.1 7.6 8.0 7.8 7.8 7.9 8.4 9.2 9.6 8.7 8.7 7.8 7.7 8.0 8.4 8.8 9.1 9.0 8.4 9.7 8.3 8.5 8.2 8.5 8.6 8.6 8.7
6.4 6.5 6.6 6.2 5.9 5.9 6.0 6.0 6.4 6.4 6.2 6.8 6.9 6.7 6.6 7.1 7.6 7.8 7.4 7.5 7.8 8.0 7.7 7.6 8.3 8.7 8.7 9.6 9.6 8.7 8.2 8.0 7.9 7.9 9.0 9.3 8.5 8.5 8.7 8.2 8.3 8.6 8.7 8.5 8.5
6.3 6.3 6.6 6.4 6.3 5.9 5.9 6.0 6.1 6.1 6.7 7.0 6.8 6.7 6.6 6.7 6.8 6.8 6.8 6.8 7.2 7.8 7.8 7.5 8.4 8.2 8.4 9.0 8.8 8.9 8.5 8.4 8.2 8.1 8.2 9.3 9.5 9.1 7.7 7.3 7.9 8.7 8.7 8.6 8.3
6.2 6.5 6.6 6.3 5.8 5.9 6.0 5.8 5.8 6.1 6.1 6.3 6.2 6.4 6.8 6.7 6.2 6.4 6.6 7.0 7.3 7.8 7.9 7.3 7.9 8.5 9.4 9.4 8.8 9.0 8.9 8.5 8.3 8.2 8.4 8.6 8.6 8.0 6.2 7.0 7.5 8.2 8.5 8.3 8.2
Wind_Speed
16 17 17 18 19 19 19 20 20 20 19 19 20 20 19 19 19 6 6 6 8 23 13 9 9 9 5 2 0 1 3 5 5 7 8 11 9 7 9 12 4 4 13 20 20
17 17 18 18 19 20 19 19 19 19 20 19 18 19 19 19 8 9 6 18 26 25 14 10 9 8 1 1 2 1 0 5 2 5 11 8 7 13 10 10 7 11 19 21 19
19 20 19 19 18 19 19 19 19 19 19 18 18 19 19 17 8 2 7 14 28 24 11 9 7 6 3 2 4 1 3 5 6 6 12 10 7 7 9 3 9 17 22 20 19
21 21 21 21 21 21 20 20 19 19 19 18 17 18 21 5 5 5 2 15 23 19 10 9 8 7 2 4 4 6 4 2 3 6 5 4 6 6 1 6 10 19 21 19 18
19 21 21 21 21 22 22 22 21 19 17 16 15 16 7 7 3 7 8 19 19 12 14 11 7 6 4 3 3 7 7 5 10 7 7 7 7 7 7 9 16 18 19 18 15
20 20 21 21 22 22 23 23 22 18 16 13 12 15 7 11 3 4 10 18 14 13 12 10 3 5 6 3 5 4 6 9 9 9 8 7 7 5 7 14 16 17 18 16 14
20 20 21 21 22 22 23 25 22 16 11 9 8 5 6 4 2 3 10 15 12 12 10 9 7 8 8 4 3 9 9 8 7 9 5 6 7 6 12 16 15 18 17 16 14
21 21 21 22 22 23 24 22 17 8 4 6 6 5 5 3 1 5 8 10 11 9 10 5 7 10 9 6 7 6 8 10 11 9 6 7 7 9 14 17 17 18 15 15 15
21 22 22 22 23 22 22 17 7 6 7 7 6 5 2 5 7 11 11 9 12 8 10 5 8 11 7 13 9 9 6 5 6 9 5 9 3 11 14 16 18 17 17 15 15
22 22 22 22 22 21 20 7 3 5 5 4 2 5 5 2 1 4 9 12 9 11 9 10 8 11 12 12 12 11 9 6 3 8 8 8 7 10 14 16 17 18 17 16 16
24 24 23 22 23 20 11 4 4 6 8 9 9 11 7 5 6 9 9 14 13 16 16 17 13 16 19 18 10 6 9 7 5 2 7 8 7 9 13 15 17 17 18 18 17
23 22 22 22 23 21 7 4 6 5 7 5 8 10 13 7 6 11 9 16 16 19 21 15 20 20 17 16 15 10 10 9 5 5 6 3 8 10 14 17 18 19 19 19 18
21 20 21 22 24 8 5 7 6 4 6 1 2 4 3 6 8 11 15 20 21 24 26 23 23 21 18 18 15 17 14 9 7 5 10 7 14 10 12 15 16 17 18 18 19
20 19 18 24 4 1 2 5 9 4 5 4 2 3 1 4 7 15 14 13 16 26 24 24 23 23 20 20 19 19 16 9 8 8 6 2 1 13 13 16 19 20 19 20 21
20 18 15 10 4 1 5 8 2 4 5 5 2 3 7 7 8 9 15 13 20 20 22 24 23 20 22 22 20 18 9 12 12 12 11 12 7 5 14 14 19 22 23 22 22
20 17 7 3 2 4 8 6 4 6 1 3 3 7 9 5 7 2 11 13 12 21 22 24 18 18 24 22 21 19 5 9 11 13 13 15 7 7 11 14 18 20 23 22 22
19 9 3 2 4 8 7 4 5 4 5 7 9 12 10 4 5 9 13 19 13 18 20 24 22 18 17 22 21 23 17 10 12 12 13 6 7 13 1 5 9 21 24 24 22
16 3 3 3 7 7 5 5 2 5 7 12 10 13 4 8 1 8 9 18 21 16 17 19 25 23 18 26 22 23 23 15 18 13 14 13 7 6 3 2 8 13 20 23 23
6 3 1 4 5 6 6 3 5 6 9 10 14 9 2 5 5 5 12 15 16 16 20 21 24 25 17 20 23 23 24 23 22 17 13 12 14 9 10 5 8 12 15 21 24
2 3 3 8 7 7 1 5 2 6 9 6 8 5 11 11 10 7 9 7 5 3 9 9 14 16 22 16 19 21 18 20 16 23 19 17 16 8 12 9 6 8 13 18 23
4 4 5 8 5 3 3 5 2 6 9 8 8 11 10 10 13 7 5 8 10 5 7 12 12 16 14 21 23 15 15 18 18 19 16 16 16 12 14 2 4 4 8 15 19
3 2 5 4 3 1 3 3 1 6 8 4 7 9 9 11 10 7 4 9 13 8 8 15 10 14 21 20 21 25 24 22 16 23 18 15 14 8 8 1 5 5 3 8 18
2 2 3 6 2 2 4 3 2 6 6 7 6 6 8 10 7 5 6 6 12 8 7 0 12 13 18 11 12 19 23 25 23 17 20 17 17 12 9 5 6 6 5 3 10
3 2 3 3 1 4 1 1 1 2 1 6 7 8 10 10 5 9 10 5 13 7 10 4 14 16 15 18 16 20 23 24 24 18 19 20 22 15 9 1 6 7 5 3 7
4 3 3 1 4 3 3 2 4 4 1 3 4 5 8 6 10 9 8 14 7 4 9 5 11 16 21 14 13 20 20 25 25 25 22 18 22 19 14 3 7 6 6 6 5
3 3 2 3 1 3 2 1 3 4 4 3 6 9 8 10 9 13 14 11 8 6 10 8 7 7 15 18 15 16 21 19 25 25 22 22 16 2 9 6 5 5 5 7 8
2 1 4 4 2 4 2 2 2 5 1 6 8 10 10 9 11 15 16 16 16 16 10 9 6 7 14 14 17 20 19 18 15 16 19 22 20 7 7 9 7 5 9 8 7
Wind_Direction
357 354 348 344 342 342 341 336 334 333 334 332 331 327 327 327 310 233 254 100 169 164 155 172 192 177 104 103 275 320 236 136 126 132 132 146 125 114 106 137 101 115 140 140 143
351 345 344 341 339 337 333 329 328 329 329 328 326 324 323 326 286 255 82 154 151 168 162 169 180 163 156 224 167 318 286 65 12 127 142 133 124 133 137 138 133 119 114 134 150
347 344 339 335 335 331 327 326 324 324 322 322 323 322 318 316 272 136 86 162 160 177 172 182 195 203 197 240 165 174 56 139 114 113 142 151 129 144 129 131 156 149 143 148 156
343 339 335 336 334 330 325 322 320 318 315 315 317 317 313 260 238 58 208 164 165 187 196 183 180 239 240 188 204 187 208 162 92 129 114 121 107 138 102 86 140 143 146 152 161
340 336 334 333 330 326 323 319 317 312 307 308 312 316 291 223 252 38 139 160 173 205 206 204 222 252 312 342 198 238 114 118 157 136 131 156 133 124 108 128 134 149 151 156 161
338 335 332 331 329 326 322 317 314 307 298 298 303 307 254 236 69 115 144 167 187 201 218 226 276 323 291 346 282 125 118 124 148 156 164 160 148 176 122 143 143 159 160 160 157
335 333 331 330 327 325 323 320 316 306 282 277 286 286 252 240 54 196 179 185 196 211 221 228 278 290 343 153 136 137 142 139 146 159 155 189 192 201 150 155 160 178 171 164 163
332 331 329 329 327 326 326 324 317 322 215 215 238 245 263 82 246 193 181 205 215 233 255 297 268 265 268 119 167 191 194 189 152 182 139 225 97 153 164 170 172 176 175 174 170
331 328 329 329 326 327 324 324 348 85 131 164 221 259 226 149 216 214 199 207 202 224 215 272 243 235 198 209 199 195 195 212 160 203 151 232 90 149 175 180 179 175 183 181 174
328 328 329 329 328 326 321 281 209 175 175 220 257 244 203 130 123 174 201 228 197 194 203 224 220 215 218 218 217 198 217 174 169 166 211 208 242 153 182 192 180 180 185 185 183
332 332 332 330 324 322 307 226 239 179 223 293 319 293 268 329 237 213 185 195 211 195 199 200 214 215 208 219 238 295 242 180 119 121 215 222 240 196 180 196 189 187 187 189 191
331 332 330 326 322 316 274 43 47 347 301 280 278 271 273 270 270 210 187 193 201 201 205 191 222 213 225 222 225 226 229 197 129 147 236 217 249 206 186 201 202 194 187 190 190
332 330 328 323 318 292 37 54 335 269 262 156 292 304 4 212 231 222 200 210 200 210 203 214 214 223 218 222 228 232 229 219 272 161 228 268 245 201 194 194 202 205 193 192 192
332 331 330 321 293 32 96 340 317 229 269 96 146 109 181 307 244 226 209 208 217 217 211 222 223 213 216 226 216 224 219 261 221 242 260 234 316 177 179 194 195 202 199 195 192
337 334 333 349 341 300 6 326 310 231 275 40 63 72 289 252 337 175 210 210 232 214 212 213 220 203 216 217 213 239 219 227 246 250 262 214 250 146 172 200 201 202 204 200 192
336 334 311 212 213 12 314 303 231 239 75 353 326 331 318 199 241 261 196 226 231 226 220 224 204 217 223 219 224 227 212 230 235 247 247 247 235 253 180 220 200 200 202 202 196
337 338 227 296 24 325 304 222 247 303 0 2 339 327 312 313 247 236 203 199 203 208 205 215 208 216 234 218 222 220 210 215 216 216 235 197 240 249 193 164 214 195 201 199 200
336 212 171 331 311 308 262 227 344 9 353 333 325 306 309 356 234 239 227 213 221 229 214 208 207 203 203 221 202 215 221 227 221 226 227 180 238 228 89 357 182 202 198 199 199
321 177 225 10 323 293 259 30 29 7 343 330 303 307 350 33 308 288 230 224 203 219 236 211 219 188 212 212 221 201 221 234 245 249 254 211 221 247 243 249 198 191 194 198 200
248 221 59 332 312 264 321 74 84 11 334 320 325 342 324 348 341 304 190 11 354 294 288 236 232 187 205 228 221 241 208 223 231 236 229 239 242 238 176 164 135 195 207 204 201
226 233 37 329 274 265 21 60 57 25 353 337 336 315 326 343 329 318 5 81 7 305 276 248 238 203 201 208 214 200 233 223 227 229 233 232 234 206 230 299 311 300 225 202 199
283 243 16 309 259 319 63 29 338 359 4 330 315 317 320 325 314 311 352 21 3 333 230 222 241 231 205 227 225 221 215 223 220 217 230 255 229 93 123 160 2 14 351 235 191
331 14 52 291 296 99 122 114 14 357 13 351 322 350 323 306 304 329 338 28 2 356 341 43 225 229 232 184 215 231 228 222 226 239 220 225 232 151 134 77 30 33 43 183 196
276 225 116 68 33 319 268 105 301 84 333 339 311 305 320 299 261 292 304 338 337 343 320 252 249 239 225 225 208 213 227 225 226 223 228 219 237 230 184 169 16 56 54 92 189
349 58 3 49 81 53 285 311 301 346 314 320 227 333 327 290 304 274 326 327 282 20 327 322 262 233 248 266 256 201 215 223 226 233 227 230 225 242 251 16 48 10 68 86 113
3 314 173 101 173 256 169 76 338 339 293 302 303 330 311 294 305 304 311 306 293 326 327 324 267 274 250 234 235 246 219 216 224 230 242 249 248 233 46 89 51 47 73 82 72
67 144 283 130 210 269 56 30 344 317 185 286 305 306 305 327 319 298 289 281 270 287 298 297 308 267 240 204 220 233 219 222 221 221 228 234 240 255 92 55 33 29 52 60 57